Location: Baggettsville
(36.4767°N, 86.7303°W)
Time: 23:56:38
(UTC+00:00)

H-2A R/B - Pass Details

Date: 29 October 2020
Orbit: 577 x 656 km, 98.5° (Epoch: 28 November)

Event Time Altitude Azimuth Distance (km) Brightness Sun altitude
Rises 23:31:02 0° 358° (N) 2,821 5.3 -8.3°
Reaches altitude 10° 23:33:32 10° 344° (NNW) 1,907 4.6 -8.8°
Maximum altitude 23:36:48 23° 291° (WNW) 1,240 4.4 -9.4°
Drops below altitude 10° 23:40:03 10° 238° (WSW) 1,884 5.8 -10.1°
Sets 23:42:30 0° 224° (SW) 2,777 6.4 -10.5°
